Regional Weather Roundup
Issued by NWS Mobile, AL

Home | Current Version | Previous Version | Text Only | Print | Product List | Glossary On
Versions: 1 2 3 4 5 6 7 8 9 10 11 12 13 14 15 16 17 18 19 20 21 22 23 24 25 26 27 28 29 30 31 32 33 34 35 36 37 38 39 40 41 42 43 44 45 46 47 48 49 50
000
ASUS44 KMOB 270613
RWRMOB
REGIONAL WEATHER ROUNDUP
NATIONAL WEATHER SERVICE MOBILE AL
100 AM CDT MON MAR 27 2017

NOTE: "FAIR" INDICATES FEW OR NO CLOUDS BELOW 12,000 FEET WITH NO
      SIGNIFICANT WEATHER AND/OR OBSTRUCTIONS TO VISIBILITY.

  * THESE STATIONS ARE PART OF THE UNIVERSITY OF SOUTH ALABAMA
    MESONET AND ARE NOT UNDER NWS OR FAA QUALITY CONTROL.

ALZ061>064-270700-
COASTAL ALABAMA

CITY           SKY/WX    TMP DP  RH WIND       PRES   REMARKS
MOBILE REG APT CLOUDY    70  67  90 S12       30.02F
6HR MIN TEMP:  69; 6HR MAX TEMP:  74;

BROOKLEY FIELD CLOUDY    72  70  93 S9        30.02F
6HR MIN TEMP:  72; 6HR MAX TEMP:  73;

USA CAMPUS*      N/A     70  66  88 SE5       30.01F
DOG RIVER*       N/A     70  68  94 S12       30.77F


CITY           SKY/WX    TMP DP  RH WIND       PRES   REMARKS
GULF SHORES    MOCLDY    69  69 100 S7        30.04F

$$

ALZ051>060-270700-
INTERIOR SOUTHWEST AND SOUTH CENTRAL ALABAMA

CITY           SKY/WX    TMP DP  RH WIND       PRES   REMARKS
GREENVILLE     MOCLDY    67  63  87 S5        30.03F
6HR MIN TEMP:  67; 6HR MAX TEMP:  75;

EVERGREEN      CLOUDY    68  65  90 S5        30.04F
6HR MIN TEMP:  67; 6HR MAX TEMP:  75;

ATMORE*          N/A    N/A N/A N/A SE7       30.04F
ANDALUSIA/OPP  CLOUDY    69  65  86 CALM      30.04F
6HR MIN TEMP:  68; 6HR MAX TEMP:  75;

ANDALUSIA*       N/A     66  66 100 SE3       30.04F
FLORALA APT    CLOUDY    66  64  93 S3        30.06F
6HR MIN TEMP:  66; 6HR MAX TEMP:  75;

FLORALA*         N/A     66  66 100 CALM      30.77F

$$

FLZ001>006-270700-
WESTERN FLORIDA PANHANDLE

CITY           SKY/WX    TMP DP  RH WIND       PRES   REMARKS
PENSACOLA      CLOUDY    71  67  87 S9        30.03F
6HR MIN TEMP:  70; 6HR MAX TEMP:  73;

NAS PENSACOLA  MOCLDY    69  67  93 S8        30.03F
6HR MIN TEMP:  69; 6HR MAX TEMP:  72;

MILTON         NOT AVBL
WHTNG S FIELD  CLOUDY    72  69  90 S8        30.04S
6HR MIN TEMP:  71; 6HR MAX TEMP:  73;



CITY           SKY/WX    TMP DP  RH WIND       PRES   REMARKS
JAY*             N/A     68  66  94 S7        30.04S
DUKE FIELD     CLOUDY    68  67  96 S8        30.03F
CRESTVIEW      MOCLDY    68  66  93 CALM      30.05F
6HR MIN TEMP:  68; 6HR MAX TEMP:  71;

VALPARAISO     PTCLDY    67  67 100 SE6       30.04F FOG
6HR MIN TEMP:  67; 6HR MAX TEMP:  71;

DESTIN         FOG       70  70 100 SE5       30.04F VSB 3/4
6HR MIN TEMP:  70; 6HR MAX TEMP:  72;


$$

MSZ076-079-270700-
INTERIOR SOUTHEAST MISSISSIPPI

CITY           SKY/WX    TMP DP  RH WIND       PRES   REMARKS
LEAKESVILLE*     N/A     68  68 100 S2        29.99F
AGRICOLA*        N/A     68  68 100 CALM      29.99F

$$

MARINE OBSERVATIONS

STATION/POSITION TIME  TEMP    WIND        PRES    WAVE
                       AIR SEA DIR/SP/G            HT/PER
                 (UTC) (F)     (DEG/KT/KT) (MB)    (FT/S)
PASCAGOULA       0548   72     160/ 15/ 18 1016.0F
PETIT BOIS ISLND 0548   70     160/ 13/ 17 1016.9F
GRAND BAY        0445   72     170/ 11     1018.0S
KATRINA CUT      0530          160/ 14     1016.3F
CEDAR POINT      0530   71     170/ 15     1016.6F
E DAUPHIN ISLAND 0500   71     160/ 12/ 14 1016.8F
MIDDLE BAY LIGHT 0530   71     170/ 16     1016.9F
USCG MOBILE BAY  0548   71 72  170/ 10/ 14 1017.0F
STATE DOCKS      0542   71 67              1016.5F
MEAHER PARK      0530   71     160/ 10     1016.9F
WEEKS BAY        0445   71                   N/A
FORT MORGAN      0548   71     170/ 16/ 17   N/A
12 S ORANGE BCH  0550   70 69  180/ 10/ 12 1016.7F   3/ 6
PENSACOLA BAY    0542   70 72  190/  8/ 10 1017.2F
64 S DAUPHIN ISL 0550   72 73  150/ 16/ 17 1016.5F   4/ 5
67 S FORT MORGAN 0530   71     160/ 16     1017.3F

$$

SELECTED LOCATIONS ACROSS THE REGION

CITY           SKY/WX    TMP DP  RH WIND       PRES   REMARKS
NEW ORLEANS    PTCLDY    70  68  93 SE8       29.97F
GULFPORT       CLOUDY    72  70  93 S13       29.98F
PASCAGOULA AP  MOCLDY    71  67  87 S9G17     30.00F
PASCAGOULA*    NOT AVBL
HATTIESBURG    MOCLDY    70  66  87 S10       29.99F
LAUREL         CLOUDY    68  63  83 S9        30.00F
MERIDIAN       MOCLDY    68  65  90 S8        29.99S
JACKSON        CLOUDY    70  64  81 S13       29.96R
MONTGOMERY     CLEAR     68  62  81 S8        30.03F
TROY           MOCLDY    64  64 100 S6        30.06F
ASHFORD*         N/A     66  66 100 SE3       30.04F
DOTHAN         CLOUDY    66  66 100 SW9       30.09F
PANAMA CITY    FOG       61  60  97 CALM      30.05F VSB 3/4

$$




USA.gov is the U.S. government's official web portal to all federal, state and local government web resources and services.